Tabellarische Ansicht des 20.8.2007


Die einzelnen Werte des Tages

Uhrzeit Temperatur Luftdruck Luftfeuchte Wind Hi-Wind Taupunkt THW Index Wind Chill Heat Index Solar- strahlung Regen

00:00

15.2 C

1005.5 hpa

89 %

4.8 km/h aus 116

6.4 km/h aus SE

13.4 C

15.3 C

15.2 C

15.3 C

0 W/m

0.00 mm

00:05

15.1 C

1005.5 hpa

89 %

4.8 km/h aus 115

6.4 km/h aus SE

13.3 C

15.2 C

15.1 C

15.2 C

0 W/m

0.00 mm

00:10

15.0 C

1005.5 hpa

90 %

4.8 km/h aus 116

8.0 km/h aus SE

13.4 C

15.1 C

15.0 C

15.1 C

0 W/m

0.00 mm

00:15

15.0 C

1005.5 hpa

90 %

4.8 km/h aus 116

8.0 km/h aus SSE

13.4 C

15.1 C

15.0 C

15.1 C

0 W/m

0.00 mm

00:20

15.0 C

1005.5 hpa

90 %

6.4 km/h aus 117

9.7 km/h aus SE

13.4 C

15.1 C

15.0 C

15.1 C

0 W/m

0.00 mm

00:25

15.0 C

1005.5 hpa

89 %

6.4 km/h aus 117

8.0 km/h aus SE

13.2 C

15.1 C

15.0 C

15.1 C

0 W/m

0.00 mm

00:30

15.1 C

1005.4 hpa

89 %

6.4 km/h aus 116

9.7 km/h aus ESE

13.3 C

15.2 C

15.1 C

15.2 C

0 W/m

0.00 mm

00:35

15.1 C

1005.4 hpa

89 %

6.4 km/h aus 117

8.0 km/h aus SE

13.3 C

15.2 C

15.1 C

15.2 C

0 W/m

0.00 mm

00:40

15.2 C

1005.4 hpa

88 %

6.4 km/h aus 116

8.0 km/h aus SE

13.2 C

15.3 C

15.2 C

15.3 C

0 W/m

0.00 mm

00:45

15.2 C

1005.2 hpa

88 %

4.8 km/h aus 118

8.0 km/h aus SE

13.2 C

15.3 C

15.2 C

15.3 C

0 W/m

0.00 mm

00:50

15.0 C

1005.2 hpa

88 %

3.2 km/h aus 116

8.0 km/h aus SE

13.0 C

15.1 C

15.0 C

15.1 C

0 W/m

0.00 mm

00:55

15.0 C

1005.2 hpa

89 %

6.4 km/h aus 116

8.0 km/h aus SSE

13.2 C

15.1 C

15.0 C

15.1 C

0 W/m

0.00 mm

01:00

15.0 C

1005.3 hpa

89 %

6.4 km/h aus 117

11.3 km/h aus SSE

13.2 C

15.1 C

15.0 C

15.1 C

0 W/m

0.00 mm

01:05

15.2 C

1005.3 hpa

89 %

8.0 km/h aus 117

11.3 km/h aus SSE

13.4 C

15.3 C

15.2 C

15.3 C

0 W/m

0.00 mm

01:10

15.3 C

1005.3 hpa

88 %

6.4 km/h aus 117

9.7 km/h aus S

13.4 C

15.4 C

15.3 C

15.4 C

0 W/m

0.00 mm

01:15

15.3 C

1005.3 hpa

88 %

4.8 km/h aus 116

9.7 km/h aus S

13.4 C

15.4 C

15.3 C

15.4 C

0 W/m

0.00 mm

01:20

15.3 C

1005.3 hpa

88 %

4.8 km/h aus 117

11.3 km/h aus SSE

13.3 C

15.4 C

15.3 C

15.4 C

0 W/m

0.00 mm

01:25

15.3 C

1005.3 hpa

88 %

3.2 km/h aus 117

4.8 km/h aus SSE

13.3 C

15.4 C

15.3 C

15.4 C

0 W/m

0.00 mm

01:30

15.3 C

1005.2 hpa

88 %

4.8 km/h aus 117

6.4 km/h aus SSE

13.3 C

15.4 C

15.3 C

15.4 C

0 W/m

0.00 mm

01:35

15.3 C

1005.2 hpa

88 %

4.8 km/h aus 117

6.4 km/h aus SSE

13.4 C

15.4 C

15.3 C

15.4 C

0 W/m

0.00 mm

01:40

15.7 C

1005.2 hpa

86 %

4.8 km/h aus 117

6.4 km/h aus SE

13.3 C

15.8 C

15.7 C

15.8 C

0 W/m

0.00 mm

01:45

15.8 C

1005.0 hpa

85 %

3.2 km/h aus 118

8.0 km/h aus SE

13.3 C

15.9 C

15.8 C

15.9 C

0 W/m

0.00 mm

01:50

15.9 C

1005.0 hpa

85 %

3.2 km/h aus 116

6.4 km/h aus SE

13.4 C

16.1 C

15.9 C

16.1 C

0 W/m

0.00 mm

01:55

15.9 C

1005.0 hpa

85 %

4.8 km/h aus 117

8.0 km/h aus SE

13.4 C

16.1 C

15.9 C

16.1 C

0 W/m

0.00 mm

02:00

16.0 C

1004.9 hpa

85 %

4.8 km/h aus 117

6.4 km/h aus SE

13.5 C

16.1 C

16.0 C

16.1 C

0 W/m

0.00 mm

02:05

15.9 C

1004.9 hpa

86 %

4.8 km/h aus 116

8.0 km/h aus SE

13.5 C

16.0 C

15.9 C

16.0 C

0 W/m

0.00 mm

02:10

15.8 C

1004.9 hpa

86 %

6.4 km/h aus 117

9.7 km/h aus SE

13.5 C

15.9 C

15.8 C

15.9 C

0 W/m

0.00 mm

02:15

15.8 C

1004.9 hpa

86 %

4.8 km/h aus 117

9.7 km/h aus SE

13.5 C

15.9 C

15.8 C

15.9 C

0 W/m

0.00 mm

02:20

15.8 C

1004.9 hpa

86 %

4.8 km/h aus 115

6.4 km/h aus SE

13.5 C

15.9 C

15.8 C

15.9 C

0 W/m

0.00 mm

02:25

15.8 C

1004.9 hpa

86 %

4.8 km/h aus 117

8.0 km/h aus SSE

13.4 C

15.9 C

15.8 C

15.9 C

0 W/m

0.00 mm

02:30

15.7 C

1004.8 hpa

87 %

4.8 km/h aus 117

8.0 km/h aus SSE

13.5 C

15.8 C

15.7 C

15.8 C

0 W/m

0.00 mm

02:35

15.6 C

1004.8 hpa

87 %

3.2 km/h aus 117

4.8 km/h aus SSE

13.5 C

15.7 C

15.6 C

15.7 C

0 W/m

0.00 mm

02:40

15.6 C

1004.8 hpa

86 %

4.8 km/h aus 114

8.0 km/h aus SE

13.3 C

15.7 C

15.6 C

15.7 C

0 W/m

0.00 mm

02:45

15.6 C

1004.6 hpa

86 %

3.2 km/h aus 117

4.8 km/h aus SE

13.3 C

15.7 C

15.6 C

15.7 C

0 W/m

0.00 mm

02:50

15.7 C

1004.6 hpa

86 %

3.2 km/h aus 118

4.8 km/h aus SE

13.3 C

15.8 C

15.7 C

15.8 C

0 W/m

0.00 mm

02:55

15.6 C

1004.6 hpa

87 %

3.2 km/h aus 117

4.8 km/h aus SE

13.4 C

15.7 C

15.6 C

15.7 C

0 W/m

0.00 mm

03:00

15.4 C

1004.5 hpa

88 %

3.2 km/h aus 117

4.8 km/h aus SE

13.4 C

15.5 C

15.4 C

15.5 C

0 W/m

0.00 mm

03:05

15.3 C

1004.5 hpa

88 %

4.8 km/h aus 117

6.4 km/h aus SE

13.4 C

15.4 C

15.3 C

15.4 C

0 W/m

0.00 mm

03:10

15.3 C

1004.5 hpa

88 %

3.2 km/h aus 117

6.4 km/h aus SE

13.4 C

15.4 C

15.3 C

15.4 C

0 W/m

0.00 mm

03:15

15.4 C

1004.5 hpa

87 %

3.2 km/h aus 117

6.4 km/h aus SE

13.2 C

15.5 C

15.4 C

15.5 C

0 W/m

0.00 mm

03:20

15.4 C

1004.5 hpa

87 %

4.8 km/h aus 117

8.0 km/h aus SE

13.2 C

15.5 C

15.4 C

15.5 C

0 W/m

0.00 mm

03:25

15.6 C

1004.5 hpa

86 %

3.2 km/h aus 117

4.8 km/h aus SE

13.2 C

15.6 C

15.6 C

15.6 C

0 W/m

0.00 mm

03:30

15.7 C

1004.4 hpa

85 %

1.6 km/h aus 115

3.2 km/h aus SE

13.2 C

15.7 C

15.7 C

15.7 C

0 W/m

0.00 mm

03:35

15.7 C

1004.4 hpa

85 %

1.6 km/h aus 117

4.8 km/h aus SE

13.2 C

15.7 C

15.7 C

15.7 C

0 W/m

0.00 mm

03:40

15.7 C

1004.4 hpa

84 %

1.6 km/h aus 116

3.2 km/h aus SE

13.0 C

15.8 C

15.7 C

15.8 C

0 W/m

0.00 mm

03:45

15.7 C

1004.3 hpa

84 %

1.6 km/h aus 116

3.2 km/h aus SE

13.0 C

15.8 C

15.7 C

15.8 C

0 W/m

0.00 mm

03:50

15.7 C

1004.3 hpa

84 %

0.0 km/h aus 115

3.2 km/h aus SE

13.0 C

15.8 C

15.7 C

15.8 C

0 W/m

0.00 mm

03:55

15.7 C

1004.3 hpa

84 %

0.0 km/h aus 118

4.8 km/h aus SE

13.0 C

15.7 C

15.7 C

15.7 C

0 W/m

0.00 mm

04:00

15.6 C

1004.3 hpa

85 %

1.6 km/h aus 117

6.4 km/h aus SE

13.0 C

15.6 C

15.6 C

15.6 C

0 W/m

0.00 mm

04:05

15.4 C

1004.3 hpa

83 %

3.2 km/h aus 117

4.8 km/h aus SE

12.6 C

15.4 C

15.4 C

15.4 C

0 W/m

0.00 mm

04:10

15.3 C

1004.3 hpa

83 %

1.6 km/h aus 116

4.8 km/h aus SE

12.5 C

15.3 C

15.3 C

15.3 C

0 W/m

0.00 mm

04:15

15.1 C

1003.9 hpa

84 %

1.6 km/h aus 117

4.8 km/h aus SE

12.4 C

15.1 C

15.1 C

15.1 C

0 W/m

0.00 mm

04:20

15.0 C

1003.9 hpa

84 %

3.2 km/h aus 117

6.4 km/h aus SE

12.3 C

15.0 C

15.0 C

15.0 C

0 W/m

0.00 mm

04:25

15.0 C

1003.9 hpa

84 %

6.4 km/h aus 117

9.7 km/h aus SE

12.3 C

15.0 C

15.0 C

15.0 C

0 W/m

0.00 mm

04:30

15.0 C

1003.9 hpa

85 %

6.4 km/h aus 117

9.7 km/h aus SE

12.5 C

15.0 C

15.0 C

15.0 C

0 W/m

0.00 mm

04:35

15.0 C

1003.9 hpa

85 %

6.4 km/h aus 116

11.3 km/h aus ESE

12.5 C

15.0 C

15.0 C

15.0 C

0 W/m

0.00 mm

04:40

15.0 C

1003.9 hpa

85 %

6.4 km/h aus 117

9.7 km/h aus SE

12.5 C

15.0 C

15.0 C

15.0 C

0 W/m

0.00 mm

04:45

15.0 C

1003.9 hpa

85 %

6.4 km/h aus 117

9.7 km/h aus SE

12.5 C

15.0 C

15.0 C

15.0 C

0 W/m

0.00 mm

04:50

15.0 C

1003.9 hpa

84 %

6.4 km/h aus 117

9.7 km/h aus ESE

12.3 C

15.0 C

15.0 C

15.0 C

0 W/m

0.00 mm

04:55

15.0 C

1003.9 hpa

84 %

6.4 km/h aus 118

11.3 km/h aus SE

12.3 C

15.0 C

15.0 C

15.0 C

0 W/m

0.00 mm

05:00

14.8 C

1003.8 hpa

85 %

6.4 km/h aus 117

8.0 km/h aus SE

12.3 C

14.8 C

14.8 C

14.8 C

0 W/m

0.00 mm

05:05

14.7 C

1003.8 hpa

85 %

6.4 km/h aus 117

9.7 km/h aus SE

12.2 C

14.6 C

14.7 C

14.6 C

0 W/m

0.00 mm

05:10

14.6 C

1003.8 hpa

85 %

6.4 km/h aus 117

9.7 km/h aus SE

12.1 C

14.5 C

14.6 C

14.5 C

0 W/m

0.00 mm

05:15

14.5 C

1003.5 hpa

85 %

6.4 km/h aus 117

9.7 km/h aus SE

12.0 C

14.4 C

14.5 C

14.4 C

0 W/m

0.00 mm

05:20

14.5 C

1003.5 hpa

86 %

8.0 km/h aus 117

11.3 km/h aus SE

12.2 C

14.2 C

14.3 C

14.4 C

0 W/m

0.00 mm

05:25

14.6 C

1003.5 hpa

85 %

9.7 km/h aus 117

17.7 km/h aus SE

12.1 C

14.2 C

14.2 C

14.6 C

0 W/m

0.00 mm

05:30

14.7 C

1003.4 hpa

85 %

9.7 km/h aus 117

17.7 km/h aus SE

12.2 C

14.3 C

14.3 C

14.7 C

0 W/m

0.00 mm

05:35

14.8 C

1003.4 hpa

85 %

9.7 km/h aus 117

16.1 km/h aus ESE

12.3 C

14.4 C

14.4 C

14.8 C

0 W/m

0.00 mm

05:40

14.9 C

1003.4 hpa

84 %

8.0 km/h aus 117

11.3 km/h aus SE

12.2 C

14.7 C

14.8 C

14.8 C

0 W/m

0.00 mm

05:45

14.7 C

1003.3 hpa

85 %

6.4 km/h aus 117

11.3 km/h aus SE

12.2 C

14.7 C

14.7 C

14.7 C

0 W/m

0.00 mm

05:50

14.6 C

1003.3 hpa

85 %

6.4 km/h aus 117

11.3 km/h aus SSE

12.1 C

14.6 C

14.6 C

14.6 C

0 W/m

0.00 mm

05:55

14.5 C

1003.3 hpa

86 %

8.0 km/h aus 117

14.5 km/h aus SSE

12.2 C

14.2 C

14.3 C

14.4 C

0 W/m

0.00 mm

06:00

14.5 C

1003.4 hpa

86 %

6.4 km/h aus 118

14.5 km/h aus SSE

12.2 C

14.4 C

14.5 C

14.4 C

0 W/m

0.00 mm

06:05

14.6 C

1003.4 hpa

86 %

8.0 km/h aus 117

14.5 km/h aus SE

12.3 C

14.4 C

14.4 C

14.6 C

0 W/m

0.00 mm

06:10

14.9 C

1003.4 hpa

86 %

8.0 km/h aus 117

16.1 km/h aus SSE

12.6 C

14.8 C

14.8 C

14.9 C

0 W/m

0.00 mm

06:15

15.0 C

1003.4 hpa

85 %

6.4 km/h aus 117

12.9 km/h aus SSE

12.5 C

15.0 C

15.0 C

15.0 C

0 W/m

0.00 mm

06:20

14.9 C

1003.4 hpa

85 %

4.8 km/h aus 117

11.3 km/h aus SE

12.4 C

14.9 C

14.9 C

14.9 C

0 W/m

0.00 mm

06:25

14.7 C

1003.4 hpa

85 %

6.4 km/h aus 117

14.5 km/h aus SE

12.2 C

14.7 C

14.7 C

14.7 C

0 W/m

0.00 mm

06:30

14.6 C

1003.5 hpa

86 %

6.4 km/h aus 117

9.7 km/h aus SE

12.3 C

14.6 C

14.6 C

14.6 C

0 W/m

0.00 mm

06:35

14.5 C

1003.5 hpa

86 %

6.4 km/h aus 117

11.3 km/h aus SSE

12.2 C

14.4 C

14.5 C

14.4 C

0 W/m

0.00 mm

06:40

14.5 C

1003.5 hpa

86 %

6.4 km/h aus 117

9.7 km/h aus SE

12.2 C

14.4 C

14.5 C

14.4 C

0 W/m

0.00 mm

06:45

14.5 C

1003.5 hpa

86 %

4.8 km/h aus 117

8.0 km/h aus SE

12.2 C

14.4 C

14.5 C

14.4 C

0 W/m

0.00 mm

06:50

14.5 C

1003.5 hpa

87 %

4.8 km/h aus 117

9.7 km/h aus SSE

12.4 C

14.5 C

14.5 C

14.5 C

0 W/m

0.00 mm

06:55

14.4 C

1003.5 hpa

87 %

4.8 km/h aus 117

9.7 km/h aus SSE

12.3 C

14.4 C

14.4 C

14.4 C

0 W/m

0.00 mm

07:00

14.6 C

1003.6 hpa

87 %

6.4 km/h aus 117

9.7 km/h aus SE

12.4 C

14.6 C

14.6 C

14.6 C

0 W/m

0.00 mm

07:05

14.7 C

1003.6 hpa

87 %

6.4 km/h aus 117

11.3 km/h aus SE

12.5 C

14.7 C

14.7 C

14.7 C

0 W/m

0.00 mm

07:10

14.8 C

1003.6 hpa

87 %

4.8 km/h aus 117

9.7 km/h aus SE

12.6 C

14.8 C

14.8 C

14.8 C

0 W/m

0.00 mm

07:15

14.9 C

1003.7 hpa

86 %

4.8 km/h aus 117

9.7 km/h aus SSE

12.6 C

14.9 C

14.9 C

14.9 C

0 W/m

0.00 mm

07:20

15.0 C

1003.7 hpa

87 %

6.4 km/h aus 117

11.3 km/h aus SSE

12.9 C

15.1 C

15.0 C

15.1 C

0 W/m

0.00 mm

07:25

15.4 C

1003.7 hpa

85 %

8.0 km/h aus 117

17.7 km/h aus SSE

12.9 C

15.5 C

15.4 C

15.5 C

0 W/m

0.00 mm

07:30

15.8 C

1003.7 hpa

85 %

8.0 km/h aus 117

14.5 km/h aus SSE

13.3 C

15.8 C

15.8 C

15.8 C

0 W/m

0.00 mm

07:35

15.8 C

1003.7 hpa

84 %

8.0 km/h aus 115

11.3 km/h aus S

13.1 C

15.8 C

15.8 C

15.8 C

0 W/m

0.00 mm

07:40

15.7 C

1003.7 hpa

84 %

6.4 km/h aus 117

11.3 km/h aus SE

13.0 C

15.8 C

15.7 C

15.8 C

0 W/m

0.00 mm

07:45

15.7 C

1003.8 hpa

85 %

6.4 km/h aus 116

11.3 km/h aus SSE

13.2 C

15.8 C

15.7 C

15.8 C

0 W/m

0.00 mm

07:50

15.8 C

1003.8 hpa

85 %

6.4 km/h aus 117

11.3 km/h aus SE

13.3 C

15.8 C

15.8 C

15.8 C

0 W/m

0.00 mm

07:55

15.8 C

1003.8 hpa

85 %

8.0 km/h aus 117

14.5 km/h aus SSE

13.3 C

15.9 C

15.8 C

15.9 C

0 W/m

0.00 mm

08:00

16.0 C

1003.8 hpa

85 %

6.4 km/h aus 116

11.3 km/h aus SE

13.5 C

16.1 C

16.0 C

16.1 C

0 W/m

0.00 mm

08:05

16.1 C

1003.8 hpa

84 %

8.0 km/h aus 117

14.5 km/h aus SSE

13.4 C

16.2 C

16.1 C

16.2 C

0 W/m

0.00 mm

08:10

16.2 C

1003.8 hpa

84 %

8.0 km/h aus 116

14.5 km/h aus S

13.5 C

16.3 C

16.2 C

16.3 C

0 W/m

0.00 mm

08:15

16.2 C

1003.8 hpa

84 %

8.0 km/h aus 117

12.9 km/h aus SSE

13.5 C

16.3 C

16.2 C

16.3 C

0 W/m

0.00 mm

08:20

16.4 C

1003.8 hpa

84 %

8.0 km/h aus 116

16.1 km/h aus SSE

13.7 C

16.5 C

16.4 C

16.5 C

0 W/m

0.00 mm

08:25

16.9 C

1003.8 hpa

84 %

8.0 km/h aus 117

14.5 km/h aus S

14.2 C

17.1 C

16.9 C

17.1 C

0 W/m

0.00 mm

08:30

17.2 C

1003.7 hpa

82 %

8.0 km/h aus 117

12.9 km/h aus SSE

14.1 C

17.4 C

17.2 C

17.4 C

0 W/m

0.00 mm

08:35

17.4 C

1003.7 hpa

81 %

8.0 km/h aus 117

14.5 km/h aus SSE

14.1 C

17.6 C

17.4 C

17.6 C

0 W/m

0.00 mm

08:40

17.7 C

1003.7 hpa

80 %

9.7 km/h aus 117

17.7 km/h aus SSE

14.2 C

17.9 C

17.7 C

17.9 C

0 W/m

0.00 mm

08:45

18.0 C

1003.6 hpa

80 %

9.7 km/h aus 117

16.1 km/h aus SSW

14.5 C

18.3 C

18.0 C

18.3 C

0 W/m

0.00 mm

08:50

18.1 C

1003.6 hpa

79 %

9.7 km/h aus 117

17.7 km/h aus S

14.4 C

18.4 C

18.1 C

18.4 C

0 W/m

0.00 mm

08:55

18.2 C

1003.6 hpa

78 %

12.9 km/h aus 117

20.9 km/h aus S

14.3 C

18.1 C

17.8 C

18.4 C

0 W/m

0.00 mm

09:00

18.3 C

1003.6 hpa

77 %

14.5 km/h aus 117

22.5 km/h aus S

14.2 C

17.8 C

17.6 C

18.6 C

0 W/m

0.00 mm

09:05

18.4 C

1003.6 hpa

77 %

14.5 km/h aus 117

20.9 km/h aus S

14.3 C

17.9 C

17.7 C

18.7 C

0 W/m

0.00 mm

09:10

18.2 C

1003.6 hpa

77 %

16.1 km/h aus 118

22.5 km/h aus S

14.1 C

17.1 C

16.9 C

18.4 C

0 W/m

0.00 mm

09:15

18.0 C

1003.6 hpa

78 %

12.9 km/h aus 117

19.3 km/h aus SSW

14.1 C

17.8 C

17.6 C

18.2 C

0 W/m

0.00 mm

09:20

18.0 C

1003.6 hpa

78 %

11.3 km/h aus 117

17.7 km/h aus S

14.1 C

18.2 C

18.0 C

18.2 C

0 W/m

0.00 mm

09:25

18.3 C

1003.6 hpa

79 %

9.7 km/h aus 116

17.7 km/h aus SE

14.6 C

18.6 C

18.3 C

18.6 C

0 W/m

0.00 mm

09:30

18.6 C

1003.4 hpa

77 %

14.5 km/h aus 116

24.1 km/h aus S

14.5 C

18.2 C

17.9 C

18.9 C

0 W/m

0.00 mm

09:35

18.7 C

1003.4 hpa

77 %

12.9 km/h aus 117

20.9 km/h aus S

14.6 C

18.7 C

18.4 C

19.1 C

0 W/m

0.00 mm

09:40

19.1 C

1003.4 hpa

76 %

16.1 km/h aus 117

22.5 km/h aus S

14.7 C

18.3 C

17.9 C

19.4 C

0 W/m

0.00 mm

09:45

19.3 C

1003.5 hpa

74 %

17.7 km/h aus 117

24.1 km/h aus S

14.5 C

18.2 C

17.8 C

19.6 C

0 W/m

0.00 mm

09:50

19.4 C

1003.5 hpa

75 %

14.5 km/h aus 117

24.1 km/h aus SSE

14.9 C

19.1 C

18.7 C

19.8 C

0 W/m

0.00 mm

09:55

19.4 C

1003.5 hpa

74 %

17.7 km/h aus 117

25.7 km/h aus SSW

14.7 C

18.3 C

18.0 C

19.8 C

0 W/m

0.00 mm

10:00

19.6 C

1003.7 hpa

73 %

19.3 km/h aus 116

24.1 km/h aus S

14.6 C

18.2 C

17.8 C

19.9 C

0 W/m

0.00 mm

10:05

19.8 C

1003.7 hpa

74 %

14.5 km/h aus 117

22.5 km/h aus S

15.0 C

19.4 C

19.0 C

20.2 C

0 W/m

0.00 mm

10:10

19.8 C

1003.7 hpa

73 %

14.5 km/h aus 118

22.5 km/h aus SSW

14.9 C

19.4 C

19.1 C

20.2 C

0 W/m

0.00 mm

10:15

19.5 C

1003.8 hpa

73 %

17.7 km/h aus 116

24.1 km/h aus S

14.5 C

18.4 C

18.1 C

19.8 C

0 W/m

0.00 mm

10:20

19.0 C

1003.8 hpa

75 %

11.3 km/h aus 117

19.3 km/h aus SSE

14.5 C

19.3 C

19.0 C

19.3 C

0 W/m

0.00 mm

10:25

18.9 C

1003.8 hpa

76 %

14.5 km/h aus 117

22.5 km/h aus S

14.6 C

18.6 C

18.2 C

19.3 C

0 W/m

0.00 mm

10:30

19.2 C

1003.8 hpa

76 %

11.3 km/h aus 116

19.3 km/h aus S

14.8 C

19.6 C

19.2 C

19.6 C

0 W/m

0.00 mm

10:35

19.1 C

1003.8 hpa

75 %

16.1 km/h aus 117

25.7 km/h aus S

14.5 C

18.3 C

17.9 C

19.4 C

0 W/m

0.00 mm

10:40

18.9 C

1003.8 hpa

75 %

19.3 km/h aus 117

27.4 km/h aus S

14.4 C

17.3 C

17.1 C

19.2 C

0 W/m

0.00 mm

10:45

18.9 C

1003.8 hpa

77 %

17.7 km/h aus 117

22.5 km/h aus S

14.8 C

17.8 C

17.4 C

19.3 C

0 W/m

0.00 mm

10:50

19.2 C

1003.8 hpa

74 %

16.1 km/h aus 117

24.1 km/h aus SSW

14.4 C

18.3 C

18.1 C

19.4 C

0 W/m

0.00 mm

10:55

18.9 C

1003.8 hpa

76 %

12.9 km/h aus 117

19.3 km/h aus SSW

14.6 C

18.9 C

18.6 C

19.2 C

0 W/m

0.00 mm

11:00

19.2 C

1003.8 hpa

77 %

9.7 km/h aus 117

16.1 km/h aus S

15.0 C

19.6 C

19.2 C

19.6 C

0 W/m

0.00 mm

11:05

19.5 C

1003.8 hpa

77 %

14.5 km/h aus 117

30.6 km/h aus SSE

15.4 C

19.3 C

18.8 C

20.0 C

0 W/m

0.00 mm

11:10

18.6 C

1003.8 hpa

80 %

24.1 km/h aus 117

38.6 km/h aus SSW

15.0 C

16.4 C

15.9 C

19.0 C

0 W/m

0.00 mm

11:15

18.1 C

1003.8 hpa

86 %

12.9 km/h aus 118

20.9 km/h aus SSW

15.7 C

18.1 C

17.7 C

18.4 C

0 W/m

0.00 mm

11:20

18.3 C

1003.8 hpa

83 %

9.7 km/h aus 117

20.9 km/h aus SW

15.4 C

18.8 C

18.3 C

18.8 C

0 W/m

0.00 mm

11:25

19.1 C

1003.8 hpa

79 %

12.9 km/h aus 117

20.9 km/h aus SSW

15.3 C

19.2 C

18.7 C

19.6 C

0 W/m

0.00 mm

11:30

19.3 C

1003.6 hpa

78 %

11.3 km/h aus 117

17.7 km/h aus SSW

15.3 C

19.8 C

19.3 C

19.8 C

0 W/m

0.00 mm

11:35

19.3 C

1003.6 hpa

78 %

12.9 km/h aus 117

24.1 km/h aus S

15.4 C

19.5 C

19.0 C

19.8 C

0 W/m

0.00 mm

11:40

20.0 C

1003.6 hpa

76 %

14.5 km/h aus 117

22.5 km/h aus S

15.6 C

19.8 C

19.2 C

20.6 C

0 W/m

0.00 mm

11:45

20.6 C

1003.6 hpa

70 %

12.9 km/h aus 116

17.7 km/h aus SSW

14.9 C

20.4 C

20.2 C

20.8 C

0 W/m

0.00 mm

11:50

20.2 C

1003.6 hpa

71 %

11.3 km/h aus 117

19.3 km/h aus S

14.7 C

20.5 C

20.2 C

20.5 C

0 W/m

0.00 mm

11:55

19.9 C

1003.6 hpa

73 %

14.5 km/h aus 117

24.1 km/h aus SSW

15.0 C

19.6 C

19.2 C

20.4 C

0 W/m

0.00 mm

12:00

19.9 C

1003.6 hpa

72 %

17.7 km/h aus 117

25.7 km/h aus SSE

14.7 C

18.9 C

18.5 C

20.3 C

0 W/m

0.00 mm

12:05

19.6 C

1003.6 hpa

73 %

14.5 km/h aus 117

24.1 km/h aus SSE

14.6 C

19.2 C

18.9 C

19.9 C

0 W/m

0.00 mm

12:10

19.5 C

1003.6 hpa

74 %

9.7 km/h aus 115

17.7 km/h aus SW

14.7 C

19.9 C

19.5 C

19.9 C

0 W/m

0.00 mm

12:15

19.1 C

1003.8 hpa

75 %

17.7 km/h aus 117

30.6 km/h aus SSW

14.6 C

17.9 C

17.6 C

19.4 C

0 W/m

0.00 mm

12:20

18.6 C

1003.8 hpa

81 %

16.1 km/h aus 117

29.0 km/h aus SSW

15.3 C

17.9 C

17.4 C

19.1 C

0 W/m

0.00 mm

12:25

17.9 C

1003.8 hpa

84 %

14.5 km/h aus 117

27.4 km/h aus S

15.2 C

17.4 C

17.1 C

18.3 C

0 W/m

0.00 mm

12:30

17.6 C

1003.9 hpa

85 %

17.7 km/h aus 117

24.1 km/h aus S

15.1 C

16.2 C

15.9 C

17.9 C

0 W/m

0.00 mm

12:35

17.5 C

1003.9 hpa

87 %

11.3 km/h aus 116

19.3 km/h aus SSW

15.3 C

17.8 C

17.5 C

17.8 C

0 W/m

0.20 mm

12:40

17.3 C

1003.9 hpa

89 %

9.7 km/h aus 117

17.7 km/h aus SSW

15.5 C

17.7 C

17.3 C

17.7 C

0 W/m

0.20 mm

12:45

17.3 C

1003.9 hpa

91 %

8.0 km/h aus 117

16.1 km/h aus SSW

15.8 C

17.7 C

17.3 C

17.7 C

0 W/m

0.20 mm

12:50

17.7 C

1003.9 hpa

92 %

8.0 km/h aus 117

14.5 km/h aus SSW

16.4 C

18.2 C

17.7 C

18.2 C

0 W/m

0.00 mm

12:55

18.1 C

1003.9 hpa

89 %

6.4 km/h aus 115

16.1 km/h aus SW

16.3 C

18.6 C

18.1 C

18.6 C

0 W/m

0.00 mm

13:00

18.7 C

1003.8 hpa

86 %

9.7 km/h aus 117

17.7 km/h aus SSW

16.3 C

19.2 C

18.7 C

19.2 C

0 W/m

0.00 mm

13:05

18.4 C

1003.8 hpa

85 %

12.9 km/h aus 117

19.3 km/h aus SSW

15.9 C

18.6 C

18.1 C

18.9 C

0 W/m

0.00 mm

13:10

18.3 C

1003.8 hpa

87 %

11.3 km/h aus 117

17.7 km/h aus SW

16.1 C

18.8 C

18.3 C

18.8 C

0 W/m

0.00 mm

13:15

18.9 C

1003.9 hpa

89 %

12.9 km/h aus 117

22.5 km/h aus SSW

17.0 C

19.2 C

18.6 C

19.6 C

0 W/m

0.00 mm

13:20

19.6 C

1003.9 hpa

84 %

14.5 km/h aus 117

20.9 km/h aus S

16.8 C

19.6 C

18.8 C

20.3 C

0 W/m

0.00 mm

13:25

19.7 C

1003.9 hpa

83 %

12.9 km/h aus 117

20.9 km/h aus S

16.8 C

20.1 C

19.4 C

20.4 C

0 W/m

0.00 mm

13:30

19.9 C

1003.9 hpa

79 %

11.3 km/h aus 117

19.3 km/h aus SSW

16.1 C

20.6 C

19.9 C

20.6 C

0 W/m

0.00 mm

13:35

19.8 C

1003.9 hpa

79 %

11.3 km/h aus 117

19.3 km/h aus WSW

16.1 C

20.5 C

19.8 C

20.5 C

0 W/m

0.00 mm

13:40

20.0 C

1003.9 hpa

78 %

12.9 km/h aus 116

24.1 km/h aus SSW

16.0 C

20.2 C

19.6 C

20.6 C

0 W/m

0.00 mm

13:45

19.8 C

1003.9 hpa

78 %

20.9 km/h aus 117

33.8 km/h aus S

15.9 C

18.4 C

17.8 C

20.4 C

0 W/m

0.00 mm

13:50

18.9 C

1003.9 hpa

80 %

16.1 km/h aus 117

27.4 km/h aus SW

15.4 C

18.3 C

17.8 C

19.4 C

0 W/m

0.00 mm

13:55

18.1 C

1003.9 hpa

81 %

16.1 km/h aus 117

25.7 km/h aus SW

14.7 C

17.1 C

16.8 C

18.4 C

0 W/m

0.00 mm

14:00

17.7 C

1004.3 hpa

82 %

12.9 km/h aus 117

22.5 km/h aus SW

14.6 C

17.6 C

17.3 C

18.0 C

0 W/m

0.00 mm

14:05

17.6 C

1004.3 hpa

84 %

11.3 km/h aus 117

20.9 km/h aus SSW

14.8 C

17.8 C

17.6 C

17.8 C

0 W/m

0.00 mm

14:10

17.5 C

1004.3 hpa

87 %

11.3 km/h aus 117

20.9 km/h aus SW

15.3 C

17.8 C

17.5 C

17.8 C

0 W/m

0.00 mm

14:15

17.4 C

1004.3 hpa

85 %

12.9 km/h aus 117

19.3 km/h aus SW

14.8 C

17.2 C

16.9 C

17.7 C

0 W/m

0.20 mm

14:20

17.5 C

1004.3 hpa

87 %

9.7 km/h aus 117

17.7 km/h aus SW

15.3 C

17.8 C

17.5 C

17.8 C

0 W/m

0.00 mm

14:25

17.8 C

1004.3 hpa

85 %

8.0 km/h aus 118

16.1 km/h aus WSW

15.3 C

18.2 C

17.8 C

18.2 C

0 W/m

0.00 mm

14:30

18.0 C

1004.2 hpa

82 %

8.0 km/h aus 116

14.5 km/h aus WSW

14.9 C

18.3 C

18.0 C

18.3 C

0 W/m

0.00 mm

14:35

18.0 C

1004.2 hpa

82 %

9.7 km/h aus 117

19.3 km/h aus SW

14.9 C

18.3 C

18.0 C

18.3 C

0 W/m

0.00 mm

14:40

18.2 C

1004.2 hpa

83 %

11.3 km/h aus 117

20.9 km/h aus SSW

15.2 C

18.6 C

18.2 C

18.6 C

0 W/m

0.00 mm

14:45

18.5 C

1004.3 hpa

83 %

9.7 km/h aus 116

17.7 km/h aus SW

15.6 C

18.9 C

18.5 C

18.9 C

0 W/m

0.00 mm

14:50

18.9 C

1004.3 hpa

82 %

12.9 km/h aus 117

17.7 km/h aus S

15.8 C

19.2 C

18.6 C

19.5 C

0 W/m

0.00 mm

14:55

19.2 C

1004.3 hpa

81 %

9.7 km/h aus 117

16.1 km/h aus SSW

15.8 C

19.7 C

19.2 C

19.7 C

0 W/m

0.00 mm

15:00

19.4 C

1004.2 hpa

80 %

6.4 km/h aus 116

11.3 km/h aus SSW

15.8 C

20.0 C

19.4 C

20.0 C

0 W/m

0.00 mm

15:05

19.4 C

1004.2 hpa

80 %

8.0 km/h aus 117

16.1 km/h aus WSW

15.8 C

20.0 C

19.4 C

20.0 C

0 W/m

0.00 mm

15:10

19.9 C

1004.2 hpa

78 %

12.9 km/h aus 117

20.9 km/h aus SSW

16.0 C

20.2 C

19.6 C

20.6 C

0 W/m

0.00 mm

15:15

19.9 C

1004.1 hpa

77 %

11.3 km/h aus 117

20.9 km/h aus S

15.8 C

20.5 C

19.9 C

20.5 C

0 W/m

0.00 mm

15:20

20.1 C

1004.1 hpa

75 %

11.3 km/h aus 117

19.3 km/h aus SSW

15.5 C

20.6 C

20.1 C

20.6 C

0 W/m

0.00 mm

15:25

20.8 C

1004.1 hpa

71 %

11.3 km/h aus 117

20.9 km/h aus SSW

15.4 C

21.1 C

20.8 C

21.1 C

0 W/m

0.00 mm

15:30

20.9 C

1004.2 hpa

68 %

9.7 km/h aus 115

19.3 km/h aus SW

14.8 C

20.9 C

20.9 C

20.9 C

0 W/m

0.00 mm

15:35

20.4 C

1004.2 hpa

70 %

11.3 km/h aus 117

19.3 km/h aus WSW

14.8 C

20.7 C

20.4 C

20.7 C

0 W/m

0.00 mm

15:40

20.2 C

1004.2 hpa

71 %

8.0 km/h aus 117

14.5 km/h aus WSW

14.7 C

20.5 C

20.2 C

20.5 C

0 W/m

0.00 mm

15:45

20.3 C

1004.3 hpa

72 %

9.7 km/h aus 117

20.9 km/h aus S

15.1 C

20.7 C

20.3 C

20.7 C

0 W/m

0.00 mm

15:50

20.3 C

1004.3 hpa

69 %

14.5 km/h aus 117

24.1 km/h aus SSW

14.5 C

19.8 C

19.6 C

20.6 C

0 W/m

0.00 mm

15:55

20.1 C

1004.3 hpa

69 %

9.7 km/h aus 117

17.7 km/h aus S

14.2 C

20.3 C

20.1 C

20.3 C

0 W/m

0.00 mm

16:00

19.9 C

1004.3 hpa

68 %

12.9 km/h aus 116

22.5 km/h aus SW

13.9 C

19.8 C

19.6 C

20.2 C

0 W/m

0.00 mm

16:05

20.1 C

1004.3 hpa

70 %

11.3 km/h aus 117

19.3 km/h aus SSE

14.5 C

20.4 C

20.1 C

20.4 C

0 W/m

0.00 mm

16:10

20.1 C

1004.3 hpa

68 %

12.9 km/h aus 116

17.7 km/h aus S

14.0 C

19.9 C

19.7 C

20.3 C

0 W/m

0.00 mm

16:15

20.0 C

1004.3 hpa

71 %

11.3 km/h aus 117

19.3 km/h aus SSE

14.6 C

20.4 C

20.0 C

20.4 C

0 W/m

0.00 mm

16:20

20.0 C

1004.3 hpa

69 %

11.3 km/h aus 117

20.9 km/h aus S

14.1 C

20.3 C

20.0 C

20.3 C

0 W/m

0.00 mm

16:25

19.9 C

1004.3 hpa

68 %

9.7 km/h aus 117

16.1 km/h aus S

13.9 C

20.2 C

19.9 C

20.2 C

0 W/m

0.00 mm

16:30

20.1 C

1004.3 hpa

68 %

12.9 km/h aus 118

19.3 km/h aus S

14.0 C

19.9 C

19.7 C

20.3 C

0 W/m

0.00 mm

16:35

20.4 C

1004.3 hpa

68 %

9.7 km/h aus 117

17.7 km/h aus S

14.3 C

20.6 C

20.4 C

20.6 C

0 W/m

0.00 mm

16:40

20.8 C

1004.3 hpa

68 %

11.3 km/h aus 117

16.1 km/h aus S

14.7 C

20.9 C

20.8 C

20.9 C

0 W/m

0.00 mm

16:45

21.2 C

1004.3 hpa

66 %

9.7 km/h aus 117

17.7 km/h aus S

14.6 C

21.1 C

21.2 C

21.1 C

0 W/m

0.00 mm

16:50

20.7 C

1004.3 hpa

64 %

9.7 km/h aus 117

17.7 km/h aus S

13.6 C

20.6 C

20.7 C

20.6 C

0 W/m

0.00 mm

16:55

20.3 C

1004.3 hpa

67 %

12.9 km/h aus 117

19.3 km/h aus SSW

14.0 C

20.1 C

19.9 C

20.4 C

0 W/m

0.00 mm

17:00

21.0 C

1004.2 hpa

65 %

6.4 km/h aus 117

16.1 km/h aus SSW

14.2 C

20.8 C

21.0 C

20.8 C

0 W/m

0.00 mm

17:05

21.4 C

1004.2 hpa

65 %

6.4 km/h aus 117

11.3 km/h aus SSE

14.6 C

21.3 C

21.4 C

21.3 C

0 W/m

0.00 mm

17:10

21.7 C

1004.2 hpa

66 %

8.0 km/h aus 117

16.1 km/h aus SSE

15.0 C

21.7 C

21.7 C

21.7 C

0 W/m

0.00 mm

17:15

21.2 C

1004.1 hpa

63 %

8.0 km/h aus 113

17.7 km/h aus S

13.9 C

20.9 C

21.2 C

20.9 C

0 W/m

0.00 mm

17:20

20.6 C

1004.1 hpa

64 %

4.8 km/h aus 117

14.5 km/h aus SSE

13.5 C

20.4 C

20.6 C

20.4 C

0 W/m

0.00 mm

17:25

20.2 C

1004.1 hpa

67 %

8.0 km/h aus 117

16.1 km/h aus SSE

13.8 C

20.3 C

20.2 C

20.3 C

0 W/m

0.00 mm

17:30

20.6 C

1004.0 hpa

67 %

6.4 km/h aus 118

9.7 km/h aus S

14.3 C

20.7 C

20.6 C

20.7 C

0 W/m

0.00 mm

17:35

20.8 C

1004.0 hpa

65 %

6.4 km/h aus 117

12.9 km/h aus S

14.0 C

20.7 C

20.8 C

20.7 C

0 W/m

0.00 mm

17:40

20.7 C

1004.0 hpa

67 %

6.4 km/h aus 117

11.3 km/h aus SSE

14.4 C

20.7 C

20.7 C

20.7 C

0 W/m

0.00 mm

17:45

21.4 C

1003.9 hpa

66 %

6.4 km/h aus 117

14.5 km/h aus SE

14.8 C

21.4 C

21.4 C

21.4 C

0 W/m

0.00 mm

17:50

22.0 C

1003.9 hpa

60 %

8.0 km/h aus 117

16.1 km/h aus S

13.9 C

21.8 C

22.0 C

21.8 C

0 W/m

0.00 mm

17:55

21.7 C

1003.9 hpa

60 %

6.4 km/h aus 117

11.3 km/h aus SSW

13.6 C

21.4 C

21.7 C

21.4 C

0 W/m

0.00 mm

18:00

22.0 C

1003.9 hpa

62 %

4.8 km/h aus 116

17.7 km/h aus S

14.4 C

21.9 C

22.0 C

21.9 C

0 W/m

0.00 mm

18:05

22.1 C

1003.9 hpa

59 %

12.9 km/h aus 117

17.7 km/h aus S

13.7 C

21.6 C

21.8 C

21.9 C

0 W/m

0.00 mm

18:10

21.8 C

1003.9 hpa

60 %

9.7 km/h aus 117

16.1 km/h aus S

13.7 C

21.6 C

21.8 C

21.6 C

0 W/m

0.00 mm

18:15

21.8 C

1004.0 hpa

59 %

6.4 km/h aus 117

12.9 km/h aus S

13.4 C

21.5 C

21.8 C

21.5 C

0 W/m

0.00 mm

18:20

21.6 C

1004.0 hpa

60 %

6.4 km/h aus 117

14.5 km/h aus SSE

13.5 C

21.3 C

21.6 C

21.3 C

0 W/m

0.00 mm

18:25

21.5 C

1004.0 hpa

61 %

8.0 km/h aus 117

14.5 km/h aus S

13.7 C

21.2 C

21.5 C

21.2 C

0 W/m

0.00 mm

18:30

21.4 C

1004.0 hpa

62 %

6.4 km/h aus 116

9.7 km/h aus S

13.8 C

21.1 C

21.4 C

21.1 C

0 W/m

0.00 mm

18:35

21.6 C

1004.0 hpa

61 %

4.8 km/h aus 118

9.7 km/h aus SE

13.7 C

21.3 C

21.6 C

21.3 C

0 W/m

0.00 mm

18:40

21.4 C

1004.0 hpa

62 %

4.8 km/h aus 117

9.7 km/h aus S

13.9 C

21.2 C

21.4 C

21.2 C

0 W/m

0.00 mm

18:45

21.1 C

1004.1 hpa

64 %

4.8 km/h aus 116

8.0 km/h aus SE

14.0 C

20.9 C

21.1 C

20.9 C

0 W/m

0.00 mm

18:50

20.9 C

1004.1 hpa

64 %

3.2 km/h aus 117

6.4 km/h aus SE

13.9 C

20.8 C

20.9 C

20.8 C

0 W/m

0.00 mm

18:55

21.2 C

1004.1 hpa

62 %

3.2 km/h aus 117

6.4 km/h aus SE

13.6 C

20.9 C

21.2 C

20.9 C

0 W/m

0.00 mm

19:00

21.4 C

1004.2 hpa

61 %

3.2 km/h aus 117

8.0 km/h aus S

13.6 C

21.1 C

21.4 C

21.1 C

0 W/m

0.00 mm

19:05

21.6 C

1004.2 hpa

61 %

6.4 km/h aus 117

12.9 km/h aus SSE

13.7 C

21.3 C

21.6 C

21.3 C

0 W/m

0.00 mm

19:10

21.6 C

1004.2 hpa

62 %

8.0 km/h aus 117

14.5 km/h aus ESE

14.0 C

21.4 C

21.6 C

21.4 C

0 W/m

0.00 mm

19:15

21.3 C

1004.2 hpa

63 %

6.4 km/h aus 117

11.3 km/h aus ESE

13.9 C

21.1 C

21.3 C

21.1 C

0 W/m

0.00 mm

19:20

20.9 C

1004.2 hpa

65 %

6.4 km/h aus 117

12.9 km/h aus ESE

14.1 C

20.8 C

20.9 C

20.8 C

0 W/m

0.00 mm

19:25

20.8 C

1004.2 hpa

65 %

6.4 km/h aus 117

9.7 km/h aus SSE

14.0 C

20.7 C

20.8 C

20.7 C

0 W/m

0.00 mm

19:30

20.6 C

1004.3 hpa

68 %

4.8 km/h aus 117

8.0 km/h aus E

14.4 C

20.7 C

20.6 C

20.7 C

0 W/m

0.00 mm

19:35

20.3 C

1004.3 hpa

68 %

3.2 km/h aus 117

6.4 km/h aus E

14.2 C

20.5 C

20.3 C

20.5 C

0 W/m

0.00 mm

19:40

20.2 C

1004.3 hpa

70 %

1.6 km/h aus 118

6.4 km/h aus E

14.5 C

20.4 C

20.2 C

20.4 C

0 W/m

0.00 mm

19:45

19.9 C

1004.4 hpa

70 %

1.6 km/h aus 116

6.4 km/h aus E

14.3 C

20.2 C

19.9 C

20.2 C

0 W/m

0.00 mm

19:50

19.4 C

1004.4 hpa

73 %

3.2 km/h aus 117

4.8 km/h aus ESE

14.5 C

19.8 C

19.4 C

19.8 C

0 W/m

0.00 mm

19:55

19.2 C

1004.4 hpa

73 %

1.6 km/h aus 116

6.4 km/h aus ESE

14.3 C

19.5 C

19.2 C

19.5 C

0 W/m

0.00 mm

20:00

18.9 C

1004.5 hpa

74 %

1.6 km/h aus 117

4.8 km/h aus ESE

14.2 C

19.1 C

18.9 C

19.1 C

0 W/m

0.00 mm

20:05

18.7 C

1004.5 hpa

76 %

1.6 km/h aus 117

4.8 km/h aus ESE

14.3 C

18.9 C

18.7 C

18.9 C

0 W/m

0.00 mm

20:10

18.4 C

1004.5 hpa

77 %

1.6 km/h aus 117

4.8 km/h aus ESE

14.3 C

18.7 C

18.4 C

18.7 C

0 W/m

0.00 mm

20:15

18.2 C

1004.6 hpa

79 %

0.0 km/h aus 116

1.6 km/h aus ESE

14.5 C

18.6 C

18.2 C

18.6 C

0 W/m

0.00 mm

20:20

17.9 C

1004.6 hpa

80 %

1.6 km/h aus 116

3.2 km/h aus ESE

14.4 C

18.3 C

17.9 C

18.3 C

0 W/m

0.00 mm

20:25

17.8 C

1004.6 hpa

81 %

0.0 km/h aus 116

3.2 km/h aus ESE

14.5 C

18.1 C

17.8 C

18.1 C

0 W/m

0.00 mm

20:30

17.7 C

1004.8 hpa

81 %

3.2 km/h aus 117

4.8 km/h aus ESE

14.4 C

17.9 C

17.7 C

17.9 C

0 W/m

0.00 mm

20:35

17.6 C

1004.8 hpa

81 %

3.2 km/h aus 117

6.4 km/h aus ESE

14.3 C

17.8 C

17.6 C

17.8 C

0 W/m

0.00 mm

20:40

17.3 C

1004.8 hpa

82 %

3.2 km/h aus 118

4.8 km/h aus ESE

14.2 C

17.5 C

17.3 C

17.5 C

0 W/m

0.00 mm

20:45

17.1 C

1004.9 hpa

83 %

1.6 km/h aus 117

4.8 km/h aus ESE

14.1 C

17.3 C

17.1 C

17.3 C

0 W/m

0.00 mm

20:50

16.9 C

1004.9 hpa

83 %

1.6 km/h aus 117

4.8 km/h aus ESE

14.0 C

17.1 C

16.9 C

17.1 C

0 W/m

0.00 mm

20:55

16.8 C

1004.9 hpa

84 %

1.6 km/h aus 117

3.2 km/h aus ESE

14.1 C

17.0 C

16.8 C

17.0 C

0 W/m

0.00 mm

21:00

16.8 C

1005.0 hpa

83 %

3.2 km/h aus 116

4.8 km/h aus ESE

13.9 C

17.0 C

16.8 C

17.0 C

0 W/m

0.00 mm

21:05

16.7 C

1005.0 hpa

82 %

3.2 km/h aus 117

8.0 km/h aus SE

13.6 C

16.9 C

16.7 C

16.9 C

0 W/m

0.00 mm

21:10

16.6 C

1005.0 hpa

82 %

3.2 km/h aus 117

6.4 km/h aus SE

13.5 C

16.7 C

16.6 C

16.7 C

0 W/m

0.00 mm

21:15

16.4 C

1005.4 hpa

80 %

3.2 km/h aus 117

4.8 km/h aus SE

13.0 C

16.5 C

16.4 C

16.5 C

0 W/m

0.00 mm

21:20

16.4 C

1005.4 hpa

78 %

3.2 km/h aus 117

6.4 km/h aus SE

12.6 C

16.4 C

16.4 C

16.4 C

0 W/m

0.00 mm

21:25

16.4 C

1005.4 hpa

77 %

1.6 km/h aus 117

4.8 km/h aus SE

12.3 C

16.3 C

16.4 C

16.3 C

0 W/m

0.00 mm

21:30

16.2 C

1005.4 hpa

77 %

1.6 km/h aus 117

3.2 km/h aus SE

12.2 C

16.1 C

16.2 C

16.1 C

0 W/m

0.00 mm

21:35

16.1 C

1005.4 hpa

79 %

1.6 km/h aus 117

3.2 km/h aus SE

12.4 C

16.0 C

16.1 C

16.0 C

0 W/m

0.00 mm

21:40

16.1 C

1005.4 hpa

78 %

3.2 km/h aus 117

8.0 km/h aus ENE

12.2 C

16.0 C

16.1 C

16.0 C

0 W/m

0.00 mm

21:45

15.9 C

1005.6 hpa

78 %

3.2 km/h aus 118

8.0 km/h aus ENE

12.1 C

15.9 C

15.9 C

15.9 C

0 W/m

0.00 mm

21:50

15.9 C

1005.6 hpa

78 %

1.6 km/h aus 117

4.8 km/h aus ENE

12.1 C

15.8 C

15.9 C

15.8 C

0 W/m

0.00 mm

21:55

15.7 C

1005.6 hpa

79 %

1.6 km/h aus 117

4.8 km/h aus ENE

12.1 C

15.7 C

15.7 C

15.7 C

0 W/m

0.00 mm

22:00

15.3 C

1005.9 hpa

81 %

3.2 km/h aus 117

6.4 km/h aus E

12.0 C

15.2 C

15.3 C

15.2 C

0 W/m

0.00 mm

22:05

15.3 C

1005.9 hpa

80 %

3.2 km/h aus 117

6.4 km/h aus E

11.9 C

15.3 C

15.3 C

15.3 C

0 W/m

0.00 mm

22:10

15.6 C

1005.9 hpa

80 %

4.8 km/h aus 116

6.4 km/h aus E

12.1 C

15.5 C

15.6 C

15.5 C

0 W/m

0.00 mm

22:15

15.6 C

1005.9 hpa

80 %

3.2 km/h aus 116

6.4 km/h aus E

12.1 C

15.5 C

15.6 C

15.5 C

0 W/m

0.00 mm

22:20

15.1 C

1005.9 hpa

81 %

4.8 km/h aus 117

8.0 km/h aus SE

11.8 C

14.9 C

15.1 C

14.9 C

0 W/m

0.00 mm

22:25

15.0 C

1005.9 hpa

83 %

6.4 km/h aus 117

9.7 km/h aus SE

12.1 C

14.9 C

15.0 C

14.9 C

0 W/m

0.00 mm

22:30

15.0 C

1005.9 hpa

82 %

6.4 km/h aus 116

9.7 km/h aus SE

12.0 C

14.9 C

15.0 C

14.9 C

0 W/m

0.00 mm

22:35

15.0 C

1005.9 hpa

82 %

6.4 km/h aus 117

8.0 km/h aus SE

12.0 C

14.9 C

15.0 C

14.9 C

0 W/m

0.00 mm

22:40

14.8 C

1005.9 hpa

82 %

3.2 km/h aus 116

6.4 km/h aus SE

11.8 C

14.8 C

14.8 C

14.8 C

0 W/m

0.00 mm

22:45

14.7 C

1005.9 hpa

83 %

0.0 km/h aus 118

1.6 km/h aus SE

11.8 C

14.6 C

14.7 C

14.6 C

0 W/m

0.00 mm

22:50

14.5 C

1005.9 hpa

83 %

0.0 km/h aus 116

1.6 km/h aus SE

11.6 C

14.4 C

14.5 C

14.4 C

0 W/m

0.00 mm

22:55

14.3 C

1005.9 hpa

84 %

0.0 km/h aus 117

0.0 km/h aus ---

11.7 C

14.3 C

14.3 C

14.3 C

0 W/m

0.00 mm

23:00

14.2 C

1005.9 hpa

84 %

0.0 km/h aus 117

3.2 km/h aus SE

11.6 C

14.2 C

14.2 C

14.2 C

0 W/m

0.00 mm

23:05

14.1 C

1005.9 hpa

85 %

1.6 km/h aus 117

3.2 km/h aus SE

11.6 C

14.1 C

14.1 C

14.1 C

0 W/m

0.00 mm

23:10

14.1 C

1005.9 hpa

86 %

0.0 km/h aus 117

3.2 km/h aus SE

11.7 C

14.0 C

14.1 C

14.0 C

0 W/m

0.00 mm

23:15

14.1 C

1005.9 hpa

86 %

0.0 km/h aus 117

1.6 km/h aus SE

11.7 C

14.0 C

14.1 C

14.0 C

0 W/m

0.00 mm

23:20

14.0 C

1005.9 hpa

86 %

0.0 km/h aus 116

0.0 km/h aus ---

11.7 C

13.9 C

14.0 C

13.9 C

0 W/m

0.00 mm

23:25

13.9 C

1005.9 hpa

86 %

0.0 km/h aus 116

0.0 km/h aus ---

11.6 C

13.8 C

13.9 C

13.8 C

0 W/m

0.00 mm

23:30

13.7 C

1005.9 hpa

86 %

0.0 km/h aus 117

0.0 km/h aus ---

11.4 C

13.6 C

13.7 C

13.6 C

0 W/m

0.00 mm

23:35

13.4 C

1005.9 hpa

88 %

0.0 km/h aus 116

0.0 km/h aus ---

11.5 C

13.4 C

13.4 C

13.4 C

0 W/m

0.00 mm

23:40

13.4 C

1005.9 hpa

87 %

0.0 km/h aus 117

0.0 km/h aus ---

11.3 C

13.4 C

13.4 C

13.4 C

0 W/m

0.00 mm

23:45

13.5 C

1005.9 hpa

87 %

0.0 km/h aus 117

1.6 km/h aus SE

11.4 C

13.5 C

13.5 C

13.5 C

0 W/m

0.00 mm

23:50

13.3 C

1005.9 hpa

87 %

0.0 km/h aus 118

0.0 km/h aus ---

11.2 C

13.3 C

13.3 C

13.3 C

0 W/m

0.00 mm

23:55

13.1 C

1005.9 hpa

89 %

0.0 km/h aus 117

0.0 km/h aus ---

11.3 C

13.1 C

13.1 C

13.1 C

0 W/m

0.00 mm